Regional Weather Roundup
Issued by NWS

Home | Current Version | Previous Version | Text Only | Print | Product List | Glossary Off
Versions: 1 2 3 4 5 6 7 8 9 10 11 12 13 14 15 16 17 18 19 20 21 22 23 24 25 26 27 28 29 30 31 32 33 34 35 36 37 38 39 40 41 42 43 44 45 46 47 48 49 50

000
ASUS45 KBOI 030410
RWRID

IDAHO REGIONAL WEATHER ROUNDUP
NATIONAL WEATHER SERVICE BOISE ID
900 PM MST FRI DEC 02 2016

NOTE: "FAIR" INDICATES FEW OR NO CLOUDS BELOW 12000 FEET
WITH NO SIGNIFICANT WEATHER AND/OR OBSTRUCTIONS TO VISIBILITY

IDZ012-014-030500-
SOUTHWEST IDAHO


CITY           SKY/WX    TMP DP  RH WIND       PRES   REMARKS
BOISE          CLOUDY    32  25  75 SE8       30.30S WCI  25
CALDWELL       CLOUDY    35  26  69 E6        30.31F WCI  30
MOUNTAIN HOME  MOCLDY    28  24  85 E6        30.30F WCI  22
$$

IDZ016-017-030500-
SOUTHCENTRAL IDAHO


CITY           SKY/WX    TMP DP  RH WIND       PRES   REMARKS
BURLEY         CLOUDY    26  22  84 SW9       30.26F WCI  17
JEROME         CLOUDY    25  23  92 S5        30.28F WCI  19
TWIN FALLS     CLOUDY    27  19  72 S7        30.28F WCI  19
$$

IDZ019>023-030500-
SOUTHEAST IDAHO


CITY           SKY/WX    TMP DP  RH WIND       PRES   REMARKS
IDAHO FALLS    CLOUDY    25  20  81 S10       30.24F WCI  15
POCATELLO      CLOUDY    28  20  71 S10       30.26F WCI  19
REXBURG        CLOUDY    23  18  81 S7        30.24F WCI  15
$$

IDZ006-010-011-018-031-032-030500-
CENTRAL IDAHO MOUNTAINS


CITY           SKY/WX    TMP DP  RH WIND       PRES   REMARKS
MCCALL         CLOUDY    23  18  81 CALM      30.18F
HAILEY         CLOUDY    21  19  93 CALM      30.21F
STANLEY          N/A     23  11  60 CALM      30.16S
SALMON         CLOUDY    28  21  74 E3        30.14F
CHALLIS        CLOUDY    26  21  81 NW3       30.14S
$$

IDZ002-004-006-007-026-030500-
NORTHERN IDAHO


CITY           SKY/WX    TMP DP  RH WIND       PRES   REMARKS
LEWISTON       CLOUDY    42  29  59 S17       30.13F
LOWELL           N/A     36  34  92 CALM      30.23S
COEUR D`ALENE  FLURRIES  34  32  93 S7        30.07F WCI  28
MULLAN PASS    LGT SNOW  22  20  92 VRB6      29.96F FOG     WCI  14
$$



USA.gov is the U.S. government's official web portal to all federal, state and local government web resources and services.